Location: *
(49.3500°N, 12.6000°E)
Time: 12:48:10
(UTC+00:00)

STARLINK-32 - Pass Details

Date: 18 October 2019
Orbit: 548 x 551 km, 53.0° (Epoch: 11 November)

Event Time Altitude Azimuth Distance (km) Brightness Sun altitude
Rises 16:49:04 0° 249° (WSW) 2,710 9.1 -6.4°
Reaches altitude 10° 16:51:18 10° 250° (WSW) 1,819 7.9 -6.8°
Maximum altitude 16:55:26 81° 338° (NNW) 561 3.7 -7.4°
Drops below altitude 10° 16:59:36 10° 67° (ENE) 1,826 5.7 -8.1°
Enters shadow 16:59:43 - 67° (ENE) 1,874 5.7 -8.1°
